Weather History for Belize, Belize

Change the Weather History Date:

Friday, October 7, 2011

  Actual Average Record
Temperature  
Mean Temperature 80 °F -  
Max Temperature 85 °F 87 °F 91 °F (2007)
Min Temperature 75 °F 73 °F 68 °F (2010)
Cooling Degree Days 15    
Growing Degree Days 30 (Base 50)    
Moisture  
Dew Point 76 °F    
Average Humidity 86    
Maximum Humidity 100    
Minimum Humidity 68    
Precipitation  
Precipitation 0.51 in 0.31 in - ()
Sea Level Pressure  
Sea Level Pressure 29.89 in    
Wind  
Wind Speed 4 mph ()    
Max Wind Speed 9 mph    
Max Gust Speed -    
Visibility 8.1 miles    
Events      
Averages and records for this station are not official NWS values.
T = Trace of Precipitation, MM = Missing Value Source: Averaged Metar Reports

Daily Weather History Graph

Daily Weather History Graph

Search for Another Location

Airport:

Trip Planner

Search our weather history database for the weather conditions in past years. The results will help you decide how hot, cold, wet, or windy it might be!

Date:

Astronomy

Oct. 07, 2011 Rise Set
Actual Time 5:44 AM CST 5:37 PM CST
Civil Twilight 5:22 AM CST 5:59 PM CST
Nautical Twilight 4:57 AM CST 6:24 PM CST
Astronomical Twilight 4:32 AM CST 6:49 PM CST
Moon 2:52 PM CST (10/7) 2:06 AM CST (10/7)
Length of Visible Light 12h 36m
Length of Day
11h 52m
Waxing Gibbous, 84% of the Moon is Illuminated
Oct 7
Waxing Gibbous
Oct 11
Full
Oct 19
Last Quarter
Oct 26
New
Nov 2
First Quarter

Hourly Weather History & Observations

Time (CST) Temp. Heat Index Dew Point Humidity Pressure Visibility Wind Dir Wind Speed Gust Speed Precip Events Conditions
12:00 AM 81 °F - 78 °F 90% 29.90 in 12 mi Calm Calm - -  
12:00 AM 80.6 °F 88.1 °F 78.8 °F 94% 29.89 in 6.2 mi Calm Calm - N/A   Mostly Cloudy
3:00 AM 78 °F - 76 °F 91% 29.89 in 12 mi North 8.1 mph - -   Mostly Cloudy
3:00 AM 77.0 °F - 75.2 °F 94% 29.88 in 6.2 mi North 8.1 mph - N/A   Mostly Cloudy
6:00 AM 75 °F - 74 °F 94% 29.90 in 12 mi WNW 3.5 mph - -   Partly Cloudy
6:00 AM 75.2 °F - 73.4 °F 94% 29.90 in 6.2 mi WNW 3.5 mph - N/A   Mostly Cloudy
7:00 AM 75.2 °F - 75.2 °F 100% 29.91 in 6.2 mi Calm Calm - N/A   Mostly Cloudy
8:00 AM 78.8 °F - 75.2 °F 89% 29.93 in 6.2 mi NW 5.8 mph - N/A   Mostly Cloudy
9:00 AM 80 °F - 76 °F 83% 29.94 in 12 mi West 3.5 mph - -   Scattered Clouds
9:00 AM 80.6 °F 86.2 °F 75.2 °F 84% 29.93 in 6.2 mi West 3.5 mph - N/A   Scattered Clouds
11:00 AM 86.0 °F 96.9 °F 77.0 °F 74% 29.90 in 6.2 mi East 9.2 mph - N/A   Scattered Clouds
12:00 PM 82 °F - 76 °F 77% 29.89 in 11 mi NE 8.1 mph - -  
12:00 PM 82.4 °F 89.5 °F 75.2 °F 79% 29.88 in 6.2 mi NE 8.1 mph - N/A   Mostly Cloudy
2:00 PM 86.0 °F 96.9 °F 77.0 °F 74% 29.84 in 6.2 mi ENE 9.2 mph - N/A   Mostly Cloudy
3:00 PM 85 °F - 76 °F 68% 29.84 in 12 mi ENE 9.2 mph - -   Partly Cloudy
3:00 PM 86.0 °F 96.9 °F 77.0 °F 74% 29.83 in 6.2 mi ENE 9.2 mph - N/A   Mostly Cloudy
4:00 PM 86.0 °F 96.9 °F 77.0 °F 74% 29.83 in 6.2 mi NE 6.9 mph - N/A   Mostly Cloudy
5:00 PM 82.4 °F 90.9 °F 77.0 °F 84% 29.85 in 6.2 mi SE 6.9 mph - N/A   Mostly Cloudy
6:00 PM 79 °F - 76 °F 89% 29.88 in 9 mi South 5.8 mph - -   Mostly Cloudy
6:00 PM 78.8 °F - 77.0 °F 94% 29.88 in 6.2 mi South 5.8 mph - N/A   Mostly Cloudy
9:00 PM 77 °F - 75 °F 92% 29.90 in 12 mi WSW 3.5 mph - -   Partly Cloudy
9:00 PM 77.0 °F - 75.2 °F 94% 29.90 in 6.2 mi WSW 3.5 mph - N/A   Mostly Cloudy